Weather History for Bartow, FL

Change the Weather History Date:

Wednesday, October 23, 2013

  Actual Average Record
Temperature  
Mean Temperature 73 °F -  
Max Temperature 80 °F 84 °F 91 °F (1950)
Min Temperature 66 °F 63 °F 48 °F (1976)
Cooling Degree Days 8    
Growing Degree Days 23 (Base 50)    
Moisture  
Dew Point 58 °F    
Average Humidity 63    
Maximum Humidity 100    
Minimum Humidity 38    
Precipitation  
Precipitation 0.00 in - - ()
Sea Level Pressure  
Sea Level Pressure 29.91 in    
Wind  
Wind Speed 3 mph (NW)    
Max Wind Speed 12 mph    
Max Gust Speed -    
Visibility 7 miles    
Events      
Averages and records for this station are not official NWS values.
T = Trace of Precipitation, MM = Missing Value Source: NWS Daily Summary

Daily Weather History Graph

Daily Weather History Graph

Search for Another Location

Airport:

Trip Planner

Search our weather history database for the weather conditions in past years. The results will help you decide how hot, cold, wet, or windy it might be!

Date:

Astronomy

Oct. 23, 2013 Rise Set
Actual Time 7:32 AM EDT 6:49 PM EDT
Civil Twilight 7:08 AM EDT 7:13 PM EDT
Nautical Twilight 6:41 AM EDT 7:41 PM EDT
Astronomical Twilight 6:13 AM EDT 8:08 PM EDT
Moon 10:32 PM EDT (10/23) 11:35 AM EDT (10/23)
Length of Visible Light 12h 05m
Length of Day
11h 17m
Waning Gibbous, 79% of the Moon is Illuminated
Oct 23
Waning Gibbous
Oct 26
Last Quarter
Nov 3
New
Nov 10
First Quarter
Nov 17
Full

Hourly Weather History & Observations

Time (EDT) Temp. Heat Index Dew Point Humidity Pressure Visibility Wind Dir Wind Speed Gust Speed Precip Events Conditions
12:15 AM 71.6 °F - - N/A% 29.85 in - Calm Calm - N/A   Unknown
12:35 AM 71.6 °F - - N/A% 29.85 in - Calm Calm - N/A   Unknown
12:55 AM 71.6 °F - - N/A% 29.85 in - Calm Calm - N/A   Unknown
1:15 AM 71.6 °F - - N/A% 29.85 in - Calm Calm - N/A   Unknown
1:35 AM 71.6 °F - - N/A% 29.86 in - Calm Calm - N/A   Unknown
1:55 AM 71.6 °F - - N/A% 29.86 in - West 3.5 mph - N/A   Unknown
2:15 AM 71.6 °F - - N/A% 29.86 in - Calm Calm - N/A   Unknown
2:35 AM 71.6 °F - - N/A% 29.86 in - West 5.8 mph - N/A   Unknown
2:55 AM 71.6 °F - - N/A% 29.85 in - WSW 4.6 mph - N/A   Unknown
3:15 AM 71.6 °F - - N/A% 29.85 in - Calm Calm - N/A   Mostly Cloudy
3:35 AM 71.6 °F - - N/A% 29.85 in - Calm Calm - N/A   Mostly Cloudy
3:55 AM 71.6 °F - - N/A% 29.84 in - Calm Calm - N/A   Mostly Cloudy
4:15 AM 69.8 °F - - N/A% 29.84 in - Calm Calm - N/A   Mostly Cloudy
4:35 AM 71.6 °F - - N/A% 29.84 in - Calm Calm - N/A   Overcast
4:55 AM 71.6 °F - - N/A% 29.84 in - Calm Calm - N/A   Overcast
5:15 AM 71.6 °F - - N/A% 29.85 in - Calm Calm - N/A   Overcast
5:35 AM 71.6 °F - - N/A% 29.85 in - West 4.6 mph - N/A   Overcast
5:55 AM 71.6 °F - - N/A% 29.86 in - WNW 6.9 mph - N/A   Unknown
6:15 AM 71.6 °F - 71.6 °F 100% 29.87 in - NNW 6.9 mph - N/A   Unknown
6:35 AM 71.6 °F - 71.6 °F 100% 29.88 in - Calm Calm - N/A   Unknown
6:55 AM 71.6 °F - 71.6 °F 100% 29.88 in - Calm Calm - N/A   Unknown
7:15 AM 71.6 °F - 71.6 °F 100% 29.88 in - Calm Calm - N/A   Unknown
7:35 AM 71.6 °F - 71.6 °F 100% 29.89 in 7.0 mi Variable 4.6 mph - N/A   Mostly Cloudy
7:50 AM 71.6 °F - 71.6 °F 100% 29.89 in 7.0 mi Calm Calm - N/A   Mostly Cloudy
8:50 AM 71.6 °F - 71.6 °F 100% 29.92 in 7.0 mi Calm Calm - N/A   Mostly Cloudy
9:15 AM 71.6 °F - 71.6 °F 100% 29.92 in 7.0 mi NW 9.2 mph - N/A   Mostly Cloudy
9:50 AM 71.6 °F - 68.0 °F 88% 29.94 in 7.0 mi NNW 9.2 mph - N/A   Mostly Cloudy
10:50 AM 71.6 °F - 64.4 °F 78% 29.95 in 7.0 mi NNW 11.5 mph - N/A   Mostly Cloudy
11:50 AM 73.4 °F - 62.6 °F 69% 29.95 in 7.0 mi North 8.1 mph - N/A   Mostly Cloudy
12:50 PM 75.2 °F - 60.8 °F 61% 29.93 in 7.0 mi NW 8.1 mph - N/A   Mostly Cloudy
1:50 PM 75.2 °F - 60.8 °F 61% 29.92 in 7.0 mi NW 8.1 mph - N/A   Mostly Cloudy
2:47 PM 78.8 °F - 57.2 °F 47% 29.90 in 7.0 mi WNW 10.4 mph - N/A   Scattered Clouds
3:35 PM 80.6 °F 80.5 °F 55.4 °F 42% 29.90 in - WNW 9.2 mph - N/A   Clear
3:55 PM 80.6 °F 80.5 °F 55.4 °F 42% 29.90 in - West 4.6 mph - N/A   Clear
4:15 PM 80.6 °F 80.3 °F 53.6 °F 39% 29.90 in - WNW 9.2 mph - N/A   Clear
4:35 PM 80.6 °F 80.3 °F 53.6 °F 39% 29.90 in - NW 6.9 mph - N/A   Clear
4:55 PM 78.8 °F - 51.8 °F 39% 29.91 in - NW 9.2 mph - N/A   Clear
5:15 PM 78.8 °F - 53.6 °F 42% 29.91 in - NW 9.2 mph - N/A   Clear
5:35 PM 78.8 °F - 51.8 °F 39% 29.91 in - NNW 9.2 mph - N/A   Clear
5:55 PM 78.8 °F - 51.8 °F 39% 29.92 in - NW 6.9 mph - N/A   Clear
6:15 PM 77.0 °F - 51.8 °F 41% 29.93 in - WNW 8.1 mph - N/A   Clear
6:35 PM 75.2 °F - 48.2 °F 38% 29.93 in - WNW 9.2 mph - N/A   Clear
6:55 PM 73.4 °F - 50.0 °F 44% 29.94 in - WNW 9.2 mph - N/A   Clear
7:15 PM 73.4 °F - 53.6 °F 50% 29.95 in - WNW 5.8 mph - N/A   Clear
7:35 PM 71.6 °F - 53.6 °F 53% 29.95 in - NW 6.9 mph - N/A   Clear
7:55 PM 71.6 °F - 53.6 °F 53% 29.96 in - NW 6.9 mph - N/A   Clear
8:15 PM 69.8 °F - 53.6 °F 56% 29.96 in - NW 5.8 mph - N/A   Clear
8:35 PM 69.8 °F - 53.6 °F 56% 29.97 in - NW 5.8 mph - N/A   Clear
8:55 PM 69.8 °F - 53.6 °F 56% 29.98 in - NW 4.6 mph - N/A   Clear
9:15 PM 69.8 °F - 53.6 °F 56% 29.98 in - Calm Calm - N/A   Clear
9:35 PM 68.0 °F - 55.4 °F 64% 29.98 in - Calm Calm - N/A   Clear
9:55 PM 68.0 °F - 53.6 °F 60% 30.00 in - NW 3.5 mph - N/A   Clear
10:15 PM 66.2 °F - 53.6 °F 64% 30.00 in - Calm Calm - N/A   Clear
10:35 PM 66.2 °F - 53.6 °F 64% 30.01 in - NNW 5.8 mph - N/A   Clear
10:55 PM 66.2 °F - 53.6 °F 64% 30.02 in - NNW 8.1 mph - N/A   Clear
11:15 PM 66.2 °F - 53.6 °F 64% 30.03 in - NNW 8.1 mph - N/A   Clear
11:35 PM 66.2 °F - 53.6 °F 64% 30.04 in - NNW 6.9 mph - N/A   Clear
11:55 PM 66.2 °F - 53.6 °F 64% 30.04 in - NNW 3.5 mph - N/A   Clear